Time,TemperatureF,DewpointF,PressureIn,WindDirection,WindDirectionDegrees,WindSpeedMPH,WindSpeedGustMPH,Humidity,HourlyPrecipIn,Conditions,Clouds,dailyrainin,SoftwareType,DateUTC
2013-04-08 00:00:00,-1.7,-6.4,29.93,North,0,0.0,0.0,80,0.00,CLR,,0.00,WeatherDisplay:10.37,2013-04-08 08:00:00,
2013-04-08 00:10:00,-2.7,-8.2,29.93,North,0,0.0,0.0,77,0.00,CLR,,0.00,WeatherDisplay:10.37,2013-04-08 08:10:00,
2013-04-08 00:15:00,-2.9,-7.8,29.94,North,0,0.0,0.0,79,0.00,CLR,,0.00,WeatherDisplay:10.37,2013-04-08 08:15:00,
2013-04-08 00:20:00,-3.1,-8.3,29.93,North,0,0.0,0.0,78,0.00,CLR,,0.00,WeatherDisplay:10.37,2013-04-08 08:20:00,
2013-04-08 00:30:00,-3.3,-8.2,29.93,North,0,0.0,0.0,79,0.00,CLR,,0.00,WeatherDisplay:10.37,2013-04-08 08:30:00,
2013-04-08 00:40:00,-3.0,-7.9,29.94,North,0,0.0,0.0,79,0.00,CLR,,0.00,WeatherDisplay:10.37,2013-04-08 08:40:00,
2013-04-08 00:45:00,-2.7,-6.3,29.94,North,0,0.0,0.0,84,0.00,CLR,,0.00,WeatherDisplay:10.37,2013-04-08 08:45:00,
2013-04-08 00:55:00,-2.7,-7.6,29.93,North,0,0.0,0.0,79,0.00,CLR,,0.00,WeatherDisplay:10.37,2013-04-08 08:55:00,
2013-04-08 01:00:00,-2.9,-7.6,29.93,North,0,0.0,0.0,80,0.00,CLR,,0.00,WeatherDisplay:10.37,2013-04-08 09:00:00,
2013-04-08 01:15:00,-3.1,-7.7,29.94,North,0,0.0,0.0,80,0.00,CLR,,0.00,WeatherDisplay:10.37,2013-04-08 09:15:00,
2013-04-08 01:20:00,-4.8,-9.6,29.94,North,0,0.0,0.0,79,0.00,CLR,,0.00,WeatherDisplay:10.37,2013-04-08 09:20:00,
2013-04-08 01:25:00,-5.1,-10.2,29.94,North,0,0.0,0.0,78,0.00,CLR,,0.00,WeatherDisplay:10.37,2013-04-08 09:25:00,
2013-04-08 01:30:00,-5.2,-10.3,29.94,North,0,0.0,0.0,78,0.00,CLR,,0.00,WeatherDisplay:10.37,2013-04-08 09:30:00,
2013-04-08 01:40:00,-5.1,-10.8,29.94,North,0,0.0,0.0,76,0.00,CLR,,0.00,WeatherDisplay:10.37,2013-04-08 09:40:00,
2013-04-08 01:45:00,-5.1,-10.2,29.94,North,0,0.0,0.0,78,0.00,CLR,,0.00,WeatherDisplay:10.37,2013-04-08 09:45:00,
2013-04-08 01:50:00,-5.1,-8.7,29.95,North,0,0.0,0.0,84,0.00,CLR,,0.00,WeatherDisplay:10.37,2013-04-08 09:50:00,
2013-04-08 01:54:00,-5.4,-10.3,29.94,North,0,0.0,0.0,79,0.00,CLR,,0.00,WeatherDisplay:10.37,2013-04-08 09:54:00,
2013-04-08 02:00:00,-5.4,-9.8,29.94,North,0,0.0,0.0,81,0.00,CLR,,0.00,WeatherDisplay:10.37,2013-04-08 10:00:00,
2013-04-08 02:15:00,-5.1,-8.7,29.94,North,0,0.0,0.0,84,0.00,CLR,,0.00,WeatherDisplay:10.37,2013-04-08 10:15:00,
2013-04-08 02:24:00,-3.8,-8.4,29.94,North,0,0.0,0.0,80,0.00,CLR,,0.00,WeatherDisplay:10.37,2013-04-08 10:24:00,
2013-04-08 02:30:00,-4.2,-7.5,29.95,North,0,0.0,0.0,85,0.00,CLR,,0.00,WeatherDisplay:10.37,2013-04-08 10:30:00,
2013-04-08 02:40:00,-4.5,-7.9,29.95,North,0,0.0,0.0,85,0.00,CLR,,0.00,WeatherDisplay:10.37,2013-04-08 10:40:00,
2013-04-08 02:45:00,-4.7,-9.3,29.95,North,0,2.0,0.0,80,0.00,CLR,,0.00,WeatherDisplay:10.37,2013-04-08 10:45:00,
2013-04-08 02:50:00,-4.5,-9.4,29.95,North,0,1.0,0.0,79,0.00,CLR,,0.00,WeatherDisplay:10.37,2013-04-08 10:50:00,
2013-04-08 03:00:00,-4.2,-9.0,29.95,North,0,1.0,0.0,79,0.00,CLR,,0.00,WeatherDisplay:10.37,2013-04-08 11:00:00,
2013-04-08 03:10:00,-4.2,-8.8,29.95,North,0,2.0,0.0,80,0.00,CLR,,0.00,WeatherDisplay:10.37,2013-04-08 11:10:00,
2013-04-08 03:15:00,-3.8,-7.9,29.95,North,0,0.0,0.0,82,0.00,CLR,,0.00,WeatherDisplay:10.37,2013-04-08 11:15:00,
2013-04-08 03:20:00,-3.6,-8.3,29.95,North,0,2.0,0.0,80,0.00,CLR,,0.00,WeatherDisplay:10.37,2013-04-08 11:20:00,
2013-04-08 03:24:00,-3.5,-7.8,29.95,North,0,1.0,0.0,81,0.00,CLR,,0.00,WeatherDisplay:10.37,2013-04-08 11:24:00,
2013-04-08 03:30:00,-3.3,-7.9,29.95,North,0,1.0,0.0,80,0.00,CLR,,0.00,WeatherDisplay:10.37,2013-04-08 11:30:00,
2013-04-08 03:40:00,-3.3,-7.9,29.95,North,0,1.0,0.0,80,0.00,CLR,,0.00,WeatherDisplay:10.37,2013-04-08 11:40:00,
2013-04-08 03:45:00,-3.6,-8.5,29.95,North,0,0.0,0.0,79,0.00,CLR,,0.00,WeatherDisplay:10.37,2013-04-08 11:45:00,
2013-04-08 03:54:00,-4.4,-9.3,29.95,North,0,0.0,0.0,79,0.00,CLR,,0.00,WeatherDisplay:10.37,2013-04-08 11:54:00,
2013-04-08 04:00:00,-5.1,-9.9,29.94,North,0,0.0,0.0,79,0.00,CLR,,0.00,WeatherDisplay:10.37,2013-04-08 12:00:00,
2013-04-08 04:10:00,-6.0,-10.8,29.94,North,0,0.0,0.0,79,0.00,CLR,,0.00,WeatherDisplay:10.37,2013-04-08 12:10:00,
2013-04-08 04:15:00,-6.2,-11.5,29.94,North,0,1.0,0.0,77,0.00,CLR,,0.00,WeatherDisplay:10.37,2013-04-08 12:15:00,
2013-04-08 04:25:00,-6.5,-10.8,29.94,North,0,1.0,0.0,81,0.00,CLR,,0.00,WeatherDisplay:10.37,2013-04-08 12:25:00,
2013-04-08 04:30:00,-6.9,-11.7,29.94,North,0,2.0,0.0,79,0.00,CLR,,0.00,WeatherDisplay:10.37,2013-04-08 12:30:00,
2013-04-08 04:39:00,-5.6,-10.2,29.94,North,0,2.0,0.0,80,0.00,CLR,,0.00,WeatherDisplay:10.37,2013-04-08 12:39:00,
2013-04-08 04:45:00,-5.1,-9.7,29.93,North,0,1.0,0.0,80,0.00,CLR,,0.00,WeatherDisplay:10.37,2013-04-08 12:45:00,
2013-04-08 04:50:00,-4.8,-10.7,29.93,North,0,0.0,0.0,75,0.00,CLR,,0.00,WeatherDisplay:10.37,2013-04-08 12:50:00,
2013-04-08 05:00:00,-4.7,-9.6,29.93,North,0,0.0,0.0,79,0.00,CLR,,0.00,WeatherDisplay:10.37,2013-04-08 13:00:00,
2013-04-08 05:05:00,-4.9,-9.7,29.93,North,0,0.0,0.0,79,0.00,CLR,,0.00,WeatherDisplay:10.37,2013-04-08 13:05:00,
2013-04-08 05:10:00,-4.9,-9.0,29.93,North,0,0.0,0.0,82,0.00,CLR,,0.00,WeatherDisplay:10.37,2013-04-08 13:10:00,
2013-04-08 05:15:00,-5.1,-9.9,29.93,North,0,0.0,0.0,79,0.00,CLR,,0.00,WeatherDisplay:10.37,2013-04-08 13:15:00,
2013-04-08 05:25:00,-5.9,-10.7,29.93,North,0,0.0,0.0,79,0.00,CLR,,0.00,WeatherDisplay:10.37,2013-04-08 13:25:00,
2013-04-08 05:30:00,-6.3,-11.2,29.93,North,0,0.0,0.0,79,0.00,CLR,,0.00,WeatherDisplay:10.37,2013-04-08 13:30:00,
2013-04-08 05:39:00,-6.7,-11.3,29.92,North,0,0.0,0.0,80,0.00,CLR,,0.00,WeatherDisplay:10.37,2013-04-08 13:39:00,
2013-04-08 05:45:00,-6.9,-11.4,29.93,North,0,0.0,0.0,80,0.00,CLR,,0.00,WeatherDisplay:10.37,2013-04-08 13:45:00,
2013-04-08 05:55:00,-7.4,-12.2,29.92,North,0,0.0,0.0,79,0.00,CLR,,0.00,WeatherDisplay:10.37,2013-04-08 13:55:00,
2013-04-08 06:00:00,-7.2,-11.0,29.92,North,0,0.0,0.0,83,0.00,CLR,,0.00,WeatherDisplay:10.37,2013-04-08 14:00:00,
2013-04-08 06:10:00,-7.4,-12.2,29.92,North,0,0.0,0.0,79,0.00,CLR,,0.00,WeatherDisplay:10.37,2013-04-08 14:10:00,
2013-04-08 06:19:00,-7.6,-12.1,29.92,North,0,0.0,0.0,80,0.00,CLR,,0.00,WeatherDisplay:10.37,2013-04-08 14:19:00,
2013-04-08 06:30:00,-7.3,-11.6,29.92,North,0,0.0,0.0,81,0.00,CLR,,0.00,WeatherDisplay:10.37,2013-04-08 14:30:00,
2013-04-08 06:35:00,-7.1,-12.4,29.92,North,0,0.0,0.0,77,0.00,CLR,,0.00,WeatherDisplay:10.37,2013-04-08 14:35:00,
2013-04-08 06:40:00,-6.9,-12.2,29.92,North,0,0.0,0.0,77,0.00,CLR,,0.00,WeatherDisplay:10.37,2013-04-08 14:40:00,
2013-04-08 06:45:00,-6.5,-10.6,29.92,North,0,0.0,0.0,82,0.00,CLR,,0.00,WeatherDisplay:10.37,2013-04-08 14:45:00,
2013-04-08 06:50:00,-6.5,-11.1,29.92,North,0,0.0,0.0,80,0.00,CLR,,0.00,WeatherDisplay:10.37,2013-04-08 14:50:00,
2013-04-08 06:54:00,-6.5,-10.8,29.91,North,0,0.0,0.0,81,0.00,CLR,,0.00,WeatherDisplay:10.37,2013-04-08 14:54:00,
2013-04-08 07:00:00,-6.2,-10.5,29.91,North,0,0.0,0.0,81,0.00,CLR,,0.00,WeatherDisplay:10.37,2013-04-08 15:00:00,
2013-04-08 07:15:00,-4.2,-8.5,29.91,North,0,0.0,0.0,81,0.00,CLR,,0.00,WeatherDisplay:10.37,2013-04-08 15:15:00,
2013-04-08 07:20:00,-3.6,-8.0,29.91,North,0,0.0,0.0,81,0.00,CLR,,0.00,WeatherDisplay:10.37,2013-04-08 15:20:00,
2013-04-08 07:25:00,-3.3,-7.7,29.91,North,0,0.0,0.0,81,0.00,CLR,,0.00,WeatherDisplay:10.37,2013-04-08 15:25:00,
2013-04-08 07:30:00,-2.7,-7.4,29.91,North,0,0.0,0.0,80,0.00,CLR,,0.00,WeatherDisplay:10.37,2013-04-08 15:30:00,
2013-04-08 07:40:00,-1.5,-5.6,29.90,North,0,0.0,0.0,82,0.00,CLR,,0.00,WeatherDisplay:10.37,2013-04-08 15:40:00,
2013-04-08 07:45:00,-1.1,-4.1,29.90,North,0,0.0,0.0,87,0.00,CLR,,0.00,WeatherDisplay:10.37,2013-04-08 15:45:00,
2013-04-08 07:55:00,-0.6,-5.0,29.90,North,0,0.0,0.0,81,0.00,CLR,,0.00,WeatherDisplay:10.37,2013-04-08 15:55:00,
2013-04-08 08:00:00,-0.6,-4.5,29.90,North,0,0.0,0.0,83,0.00,CLR,,0.00,WeatherDisplay:10.37,2013-04-08 16:00:00,
2013-04-08 08:05:00,-0.8,-5.0,29.89,North,0,0.0,0.0,82,0.00,CLR,,0.00,WeatherDisplay:10.37,2013-04-08 16:05:00,
2013-04-08 08:10:00,-1.1,-5.6,29.90,North,0,0.0,0.0,81,0.00,CLR,,0.00,WeatherDisplay:10.37,2013-04-08 16:10:00,
2013-04-08 08:15:00,-1.8,-6.2,29.90,North,0,0.0,0.0,81,0.00,CLR,,0.00,WeatherDisplay:10.37,2013-04-08 16:15:00,
2013-04-08 08:25:00,-1.8,-6.0,29.89,North,0,0.0,0.0,82,0.00,CLR,,0.00,WeatherDisplay:10.37,2013-04-08 16:25:00,
2013-04-08 08:30:00,-1.5,-5.6,29.89,North,0,0.0,0.0,82,0.00,CLR,,0.00,WeatherDisplay:10.37,2013-04-08 16:30:00,
2013-04-08 08:40:00,-1.3,-4.9,29.88,North,0,0.0,0.0,84,0.00,CLR,,0.00,WeatherDisplay:10.37,2013-04-08 16:40:00,
2013-04-08 08:45:00,-1.1,-4.5,29.88,North,0,0.0,0.0,85,0.00,CLR,,0.00,WeatherDisplay:10.37,2013-04-08 16:45:00,
2013-04-08 08:55:00,-0.6,-4.0,29.88,North,0,0.0,0.0,85,0.00,CLR,,0.00,WeatherDisplay:10.37,2013-04-08 16:55:00,
2013-04-08 09:00:00,-0.1,-4.3,29.88,North,0,0.0,0.0,82,0.00,CLR,,0.00,WeatherDisplay:10.37,2013-04-08 17:00:00,
2013-04-08 09:05:00,0.7,-3.5,29.87,North,0,0.0,0.0,82,0.00,CLR,,0.00,WeatherDisplay:10.37,2013-04-08 17:05:00,
2013-04-08 09:10:00,1.0,-3.2,29.87,North,0,0.0,0.0,82,0.00,CLR,,0.00,WeatherDisplay:10.37,2013-04-08 17:10:00,
2013-04-08 09:15:00,1.2,-3.0,29.86,North,0,0.0,0.0,82,0.00,CLR,,0.00,WeatherDisplay:10.37,2013-04-08 17:15:00,
2013-04-08 09:24:00,1.8,-2.2,29.87,North,0,0.0,0.0,83,0.00,CLR,,0.00,WeatherDisplay:10.37,2013-04-08 17:24:00,
2013-04-08 09:30:00,2.1,-1.6,29.87,North,0,1.0,0.0,84,0.00,CLR,,0.00,WeatherDisplay:10.37,2013-04-08 17:30:00,
2013-04-08 09:39:00,2.7,-1.6,29.86,North,0,0.0,0.0,82,0.00,CLR,,0.00,WeatherDisplay:10.37,2013-04-08 17:39:00,
2013-04-08 09:45:00,2.7,-1.1,29.86,North,0,0.0,0.0,84,0.00,CLR,,0.00,WeatherDisplay:10.37,2013-04-08 17:45:00,
2013-04-08 09:50:00,2.5,-1.8,29.86,North,0,0.0,0.0,82,0.00,CLR,,0.00,WeatherDisplay:10.37,2013-04-08 17:50:00,
2013-04-08 09:55:00,2.5,-2.1,29.86,North,0,0.0,0.0,81,0.00,CLR,,0.00,WeatherDisplay:10.37,2013-04-08 17:55:00,
2013-04-08 10:00:00,2.4,-2.1,29.86,North,0,0.0,0.0,81,0.00,CLR,,0.00,WeatherDisplay:10.37,2013-04-08 18:00:00,
2013-04-08 10:10:00,2.5,-2.0,29.86,North,0,0.0,0.0,81,0.00,CLR,,0.00,WeatherDisplay:10.37,2013-04-08 18:10:00,
2013-04-08 10:20:00,3.4,-1.1,29.85,North,0,0.0,0.0,81,0.00,CLR,,0.00,WeatherDisplay:10.37,2013-04-08 18:20:00,
2013-04-08 10:24:00,3.9,-0.6,29.85,North,0,0.0,0.0,81,0.00,CLR,,0.00,WeatherDisplay:10.37,2013-04-08 18:24:00,
2013-04-08 10:30:00,4.3,-0.3,29.85,North,0,0.0,0.0,81,0.00,CLR,,0.00,WeatherDisplay:10.37,2013-04-08 18:30:00,
2013-04-08 10:35:00,4.5,0.2,29.85,North,0,0.0,0.0,82,0.00,CLR,,0.00,WeatherDisplay:10.37,2013-04-08 18:35:00,
2013-04-08 10:45:00,5.0,0.7,29.84,North,0,0.0,0.0,82,0.00,CLR,,0.00,WeatherDisplay:10.37,2013-04-08 18:45:00,
2013-04-08 10:54:00,5.7,1.4,29.84,North,0,0.0,0.0,82,0.00,CLR,,0.00,WeatherDisplay:10.37,2013-04-08 18:54:00,
2013-04-08 11:00:00,6.1,0.7,29.84,North,0,1.0,0.0,78,0.00,CLR,,0.00,WeatherDisplay:10.37,2013-04-08 19:00:00,
2013-04-08 11:05:00,6.6,1.5,29.84,North,0,0.0,0.0,79,0.00,CLR,,0.00,WeatherDisplay:10.37,2013-04-08 19:05:00,
2013-04-08 11:10:00,6.8,1.7,29.84,North,0,0.0,0.0,79,0.00,CLR,,0.00,WeatherDisplay:10.37,2013-04-08 19:10:00,
2013-04-08 11:15:00,7.0,2.4,29.84,North,0,1.0,0.0,81,0.00,CLR,,0.00,WeatherDisplay:10.37,2013-04-08 19:15:00,
2013-04-08 11:20:00,7.0,2.1,29.83,North,0,1.0,0.0,80,0.00,CLR,,0.00,WeatherDisplay:10.37,2013-04-08 19:20:00,
2013-04-08 11:30:00,7.4,2.8,29.83,North,0,0.0,0.0,81,0.00,CLR,,0.00,WeatherDisplay:10.37,2013-04-08 19:30:00,
2013-04-08 11:40:00,7.5,2.7,29.82,North,0,0.0,0.0,80,0.00,CLR,,0.00,WeatherDisplay:10.37,2013-04-08 19:40:00,
2013-04-08 11:50:00,7.9,3.8,29.82,North,0,0.0,0.0,83,0.00,CLR,,0.00,WeatherDisplay:10.37,2013-04-08 19:50:00,
2013-04-08 12:00:00,7.9,3.0,29.81,North,0,0.0,0.0,80,0.00,CLR,,0.00,WeatherDisplay:10.37,2013-04-08 20:00:00,
2013-04-08 12:09:00,8.2,3.6,29.81,North,0,0.0,0.0,81,0.00,CLR,,0.00,WeatherDisplay:10.37,2013-04-08 20:09:00,
2013-04-08 12:15:00,8.4,3.5,29.81,North,0,0.0,0.0,80,0.00,CLR,,0.00,WeatherDisplay:10.37,2013-04-08 20:15:00,
2013-04-08 12:25:00,8.9,4.5,29.81,North,0,0.0,0.0,82,0.00,CLR,,0.00,WeatherDisplay:10.37,2013-04-08 20:25:00,
2013-04-08 12:30:00,9.2,4.3,29.81,North,0,0.0,0.0,80,0.00,CLR,,0.00,WeatherDisplay:10.37,2013-04-08 20:30:00,
2013-04-08 12:35:00,9.3,4.4,29.80,North,0,0.0,0.0,80,0.00,CLR,,0.00,WeatherDisplay:10.37,2013-04-08 20:35:00,
2013-04-08 12:40:00,9.3,4.4,29.81,North,0,0.0,0.0,80,0.00,CLR,,0.00,WeatherDisplay:10.37,2013-04-08 20:40:00,
2013-04-08 12:54:00,9.7,5.3,29.80,North,0,0.0,0.0,82,0.00,CLR,,0.00,WeatherDisplay:10.37,2013-04-08 20:54:00,
2013-04-08 13:00:00,9.7,5.3,29.80,North,0,0.0,0.0,82,0.00,CLR,,0.00,WeatherDisplay:10.37,2013-04-08 21:00:00,
2013-04-08 13:10:00,10.6,5.6,29.79,North,0,0.0,0.0,80,0.00,CLR,,0.00,WeatherDisplay:10.37,2013-04-08 21:10:00,
2013-04-08 13:15:00,11.1,5.6,29.78,North,0,0.0,0.0,78,0.00,CLR,,0.00,WeatherDisplay:10.37,2013-04-08 21:15:00,
2013-04-08 13:24:00,11.7,5.3,29.78,North,0,0.0,0.0,75,0.00,CLR,,0.00,WeatherDisplay:10.37,2013-04-08 21:24:00,
2013-04-08 13:30:00,11.8,6.3,29.78,North,0,0.0,0.0,78,0.00,CLR,,0.00,WeatherDisplay:10.37,2013-04-08 21:30:00,
2013-04-08 13:40:00,12.4,6.3,29.78,North,0,0.0,0.0,76,0.00,CLR,,0.00,WeatherDisplay:10.37,2013-04-08 21:40:00,
2013-04-08 13:45:00,12.6,5.8,29.78,North,0,0.0,0.0,74,0.00,CLR,,0.00,WeatherDisplay:10.37,2013-04-08 21:45:00,
2013-04-08 13:55:00,13.3,6.5,29.78,North,0,0.0,0.0,74,0.00,CLR,,0.00,WeatherDisplay:10.37,2013-04-08 21:55:00,
2013-04-08 14:00:00,14.2,7.4,29.77,North,0,0.0,0.0,74,0.00,CLR,,0.00,WeatherDisplay:10.37,2013-04-08 22:00:00,
2013-04-08 14:05:00,15.1,7.7,29.77,North,0,0.0,0.0,72,0.00,CLR,,0.00,WeatherDisplay:10.37,2013-04-08 22:05:00,
2013-04-08 14:15:00,15.6,8.5,29.77,North,0,0.0,0.0,73,0.00,CLR,,0.00,WeatherDisplay:10.37,2013-04-08 22:15:00,
2013-04-08 14:25:00,16.0,8.5,29.76,North,0,0.0,0.0,72,0.00,CLR,,0.00,WeatherDisplay:10.37,2013-04-08 22:25:00,
2013-04-08 14:30:00,16.4,10.2,29.76,North,0,0.0,0.0,76,0.00,CLR,,0.00,WeatherDisplay:10.37,2013-04-08 22:30:00,
2013-04-08 14:39:00,17.5,10.0,29.76,North,0,0.0,0.0,72,0.00,CLR,,0.00,WeatherDisplay:10.37,2013-04-08 22:39:00,
2013-04-08 14:45:00,17.4,9.9,29.75,North,0,0.0,0.0,72,0.00,CLR,,0.00,WeatherDisplay:10.37,2013-04-08 22:45:00,
2013-04-08 14:50:00,17.4,9.6,29.75,North,0,0.0,0.0,71,0.00,CLR,,0.00,WeatherDisplay:10.37,2013-04-08 22:50:00,
2013-04-08 14:55:00,17.2,9.4,29.74,North,0,0.0,0.0,71,0.00,CLR,,0.00,WeatherDisplay:10.37,2013-04-08 22:55:00,
2013-04-08 15:00:00,17.0,9.2,29.75,North,0,0.0,0.0,71,0.00,CLR,,0.00,WeatherDisplay:10.37,2013-04-08 23:00:00,
2013-04-08 15:10:00,17.1,9.9,29.74,North,0,0.0,0.0,73,0.00,CLR,,0.00,WeatherDisplay:10.37,2013-04-08 23:10:00,
2013-04-08 15:15:00,17.0,9.9,29.74,North,0,0.0,0.0,73,0.00,CLR,,0.00,WeatherDisplay:10.37,2013-04-08 23:15:00,
2013-04-08 15:24:00,17.1,9.9,29.74,North,0,0.0,0.0,73,0.00,CLR,,0.00,WeatherDisplay:10.37,2013-04-08 23:24:00,
2013-04-08 15:30:00,17.4,9.9,29.74,North,0,0.0,0.0,72,0.00,CLR,,0.00,WeatherDisplay:10.37,2013-04-08 23:30:00,
2013-04-08 15:35:00,17.8,10.3,29.73,North,0,0.0,0.0,72,0.00,CLR,,0.00,WeatherDisplay:10.37,2013-04-08 23:35:00,
2013-04-08 15:40:00,18.1,10.3,29.73,North,0,0.0,0.0,71,0.00,CLR,,0.00,WeatherDisplay:10.37,2013-04-08 23:40:00,
2013-04-08 15:45:00,18.3,10.2,29.73,North,0,0.0,0.0,70,0.00,CLR,,0.00,WeatherDisplay:10.37,2013-04-08 23:45:00,
2013-04-08 15:50:00,18.7,10.8,29.73,North,0,0.0,0.0,71,0.00,CLR,,0.00,WeatherDisplay:10.37,2013-04-08 23:50:00,
2013-04-08 16:00:00,19.2,12.3,29.72,North,0,0.0,0.0,74,0.00,CLR,,0.00,WeatherDisplay:10.37,2013-04-09 00:00:00,
2013-04-08 16:05:00,18.9,12.0,29.72,North,0,2.0,0.0,74,0.00,CLR,,0.00,WeatherDisplay:10.37,2013-04-09 00:05:00,
2013-04-08 16:10:00,17.9,11.0,29.72,North,0,1.0,0.0,74,0.00,CLR,,0.00,WeatherDisplay:10.37,2013-04-09 00:10:00,
2013-04-08 16:15:00,17.6,10.7,29.72,North,0,0.0,0.0,74,0.00,CLR,,0.00,WeatherDisplay:10.37,2013-04-09 00:15:00,
2013-04-08 16:24:00,18.3,10.5,29.71,North,0,0.0,0.0,71,0.00,CLR,,0.00,WeatherDisplay:10.37,2013-04-09 00:24:00,
2013-04-08 16:30:00,18.9,11.6,29.71,North,0,0.0,0.0,73,0.00,CLR,,0.00,WeatherDisplay:10.37,2013-04-09 00:30:00,
2013-04-08 16:40:00,19.1,12.2,29.70,North,0,0.0,0.0,74,0.00,CLR,,0.00,WeatherDisplay:10.37,2013-04-09 00:40:00,
2013-04-08 16:45:00,18.9,11.9,29.70,North,0,0.0,0.0,74,0.00,CLR,,0.00,WeatherDisplay:10.37,2013-04-09 00:45:00,
2013-04-08 16:50:00,18.7,11.8,29.70,North,0,0.0,0.0,74,0.00,CLR,,0.00,WeatherDisplay:10.37,2013-04-09 00:50:00,
2013-04-08 16:55:00,18.3,11.4,29.69,North,0,0.0,0.0,74,0.00,CLR,,0.00,WeatherDisplay:10.37,2013-04-09 00:55:00,
2013-04-08 17:00:00,18.3,11.1,29.69,North,0,0.0,0.0,73,0.00,CLR,,0.00,WeatherDisplay:10.37,2013-04-09 01:00:00,
2013-04-08 17:15:00,17.5,10.6,29.68,North,0,0.0,0.0,74,0.00,CLR,,0.00,WeatherDisplay:10.37,2013-04-09 01:15:00,
2013-04-08 17:24:00,16.9,10.9,29.68,North,0,0.0,0.0,77,0.00,CLR,,0.00,WeatherDisplay:10.37,2013-04-09 01:24:00,
2013-04-08 17:30:00,16.8,11.1,29.67,North,0,0.0,0.0,78,0.00,CLR,,0.00,WeatherDisplay:10.37,2013-04-09 01:30:00,
2013-04-08 17:40:00,16.3,10.6,29.67,North,0,0.0,0.0,78,0.00,CLR,,0.00,WeatherDisplay:10.37,2013-04-09 01:40:00,
2013-04-08 17:50:00,15.6,10.5,29.67,North,0,0.0,0.0,80,0.00,CLR,,0.00,WeatherDisplay:10.37,2013-04-09 01:50:00,
2013-04-08 17:54:00,15.6,10.3,29.66,North,0,0.0,0.0,79,0.00,CLR,,0.00,WeatherDisplay:10.37,2013-04-09 01:54:00,
2013-04-08 18:00:00,15.6,10.3,29.66,North,0,0.0,0.0,79,0.00,CLR,,0.00,WeatherDisplay:10.37,2013-04-09 02:00:00,
2013-04-08 18:10:00,15.5,10.5,29.66,North,0,0.0,0.0,80,0.00,CLR,,0.00,WeatherDisplay:10.37,2013-04-09 02:10:00,
2013-04-08 18:15:00,15.4,12.3,29.66,North,0,0.0,0.0,87,0.00,CLR,,0.00,WeatherDisplay:10.37,2013-04-09 02:15:00,
2013-04-08 18:20:00,15.1,9.7,29.65,North,0,0.0,0.0,79,0.00,CLR,,0.00,WeatherDisplay:10.37,2013-04-09 02:20:00,
2013-04-08 18:25:00,14.9,9.8,29.65,North,0,0.0,0.0,80,0.00,CLR,,0.00,WeatherDisplay:10.37,2013-04-09 02:25:00,
2013-04-08 18:30:00,14.9,9.8,29.65,North,0,0.0,0.0,80,0.00,CLR,,0.00,WeatherDisplay:10.37,2013-04-09 02:30:00,
2013-04-08 18:40:00,14.4,9.6,29.64,North,0,0.0,0.0,81,0.00,CLR,,0.00,WeatherDisplay:10.37,2013-04-09 02:40:00,
2013-04-08 18:45:00,14.2,10.0,29.64,North,0,0.0,0.0,83,0.00,CLR,,0.00,WeatherDisplay:10.37,2013-04-09 02:45:00,
2013-04-08 18:50:00,13.6,9.4,29.63,North,0,0.0,0.0,83,0.00,CLR,,0.00,WeatherDisplay:10.37,2013-04-09 02:50:00,
2013-04-08 18:55:00,13.5,9.3,29.63,North,0,0.0,0.0,83,0.00,CLR,,0.00,WeatherDisplay:10.37,2013-04-09 02:55:00,
2013-04-08 19:04:00,13.1,9.2,29.62,North,0,0.0,0.0,84,0.00,CLR,,0.00,WeatherDisplay:10.37,2013-04-09 03:04:00,
2013-04-08 19:09:00,12.7,8.7,29.62,North,0,0.0,0.0,84,0.00,CLR,,0.00,WeatherDisplay:10.37,2013-04-09 03:09:00,
2013-04-08 19:15:00,12.4,8.7,29.62,North,0,0.0,0.0,85,0.00,CLR,,0.00,WeatherDisplay:10.37,2013-04-09 03:15:00,
2013-04-08 19:25:00,11.9,7.8,29.62,North,0,0.0,0.0,83,0.00,CLR,,0.00,WeatherDisplay:10.37,2013-04-09 03:25:00,
2013-04-08 19:35:00,11.5,7.6,29.61,North,0,0.0,0.0,84,0.00,CLR,,0.00,WeatherDisplay:10.37,2013-04-09 03:35:00,
2013-04-08 19:40:00,11.3,7.4,29.61,North,0,0.0,0.0,84,0.00,CLR,,0.00,WeatherDisplay:10.37,2013-04-09 03:40:00,
2013-04-08 19:45:00,11.2,7.3,29.61,North,0,0.0,0.0,84,0.00,CLR,,0.00,WeatherDisplay:10.37,2013-04-09 03:45:00,
2013-04-08 19:55:00,10.9,7.1,29.61,North,0,0.0,0.0,84,0.00,CLR,,0.00,WeatherDisplay:10.37,2013-04-09 03:55:00,
2013-04-08 20:04:00,10.7,6.5,29.60,North,0,0.0,0.0,83,0.00,CLR,,0.00,WeatherDisplay:10.37,2013-04-09 04:04:00,
2013-04-08 20:10:00,10.6,6.7,29.60,North,0,0.0,0.0,84,0.00,CLR,,0.00,WeatherDisplay:10.37,2013-04-09 04:10:00,
2013-04-08 20:15:00,10.4,6.5,29.59,North,0,0.0,0.0,84,0.00,CLR,,0.00,WeatherDisplay:10.37,2013-04-09 04:15:00,
2013-04-08 20:24:00,9.9,6.5,29.59,North,0,0.0,0.0,86,0.00,CLR,,0.00,WeatherDisplay:10.37,2013-04-09 04:24:00,
2013-04-08 20:30:00,9.8,6.7,29.59,North,0,0.0,0.0,87,0.00,CLR,,0.00,WeatherDisplay:10.37,2013-04-09 04:30:00,
2013-04-08 20:35:00,9.7,5.8,29.59,North,0,0.0,0.0,84,0.00,CLR,,0.00,WeatherDisplay:10.37,2013-04-09 04:35:00,
2013-04-08 20:40:00,9.5,5.6,29.59,North,0,0.0,0.0,84,0.00,CLR,,0.00,WeatherDisplay:10.37,2013-04-09 04:40:00,
2013-04-08 20:45:00,9.3,5.5,29.59,North,0,0.0,0.0,84,0.00,CLR,,0.00,WeatherDisplay:10.37,2013-04-09 04:45:00,
2013-04-08 20:55:00,9.0,4.6,29.58,North,0,0.0,0.0,82,0.00,CLR,,0.00,WeatherDisplay:10.37,2013-04-09 04:55:00,
2013-04-08 21:00:00,8.8,4.9,29.58,North,0,0.0,0.0,84,0.00,CLR,,0.00,WeatherDisplay:10.37,2013-04-09 05:00:00,
2013-04-08 21:05:00,8.6,5.5,29.58,North,0,0.0,0.0,87,0.00,CLR,,0.00,WeatherDisplay:10.37,2013-04-09 05:05:00,
2013-04-08 21:10:00,8.5,5.9,29.57,North,0,0.0,0.0,89,0.00,CLR,,0.00,WeatherDisplay:10.37,2013-04-09 05:10:00,
2013-04-08 21:20:00,8.3,5.5,29.57,North,0,0.0,0.0,88,0.00,CLR,,0.00,WeatherDisplay:10.37,2013-04-09 05:20:00,
2013-04-08 21:25:00,8.2,4.4,29.57,North,0,0.0,0.0,84,0.00,CLR,,0.00,WeatherDisplay:10.37,2013-04-09 05:25:00,
2013-04-08 21:30:00,8.1,4.2,29.57,North,0,0.0,0.0,84,0.00,CLR,,0.00,WeatherDisplay:10.37,2013-04-09 05:30:00,
2013-04-08 21:39:00,7.9,4.3,29.57,North,0,0.0,0.0,85,0.00,CLR,,0.00,WeatherDisplay:10.37,2013-04-09 05:39:00,
2013-04-08 21:45:00,7.7,3.9,29.56,North,0,0.0,0.0,84,0.00,CLR,,0.00,WeatherDisplay:10.37,2013-04-09 05:45:00,
2013-04-08 21:50:00,7.5,4.7,29.56,North,0,0.0,0.0,88,0.00,CLR,,0.00,WeatherDisplay:10.37,2013-04-09 05:50:00,
2013-04-08 22:00:00,7.5,4.2,29.55,North,0,0.0,0.0,86,0.00,CLR,,0.00,WeatherDisplay:10.37,2013-04-09 06:00:00,
2013-04-08 22:10:00,7.3,3.5,29.55,North,0,0.0,0.0,84,0.00,CLR,,0.00,WeatherDisplay:10.37,2013-04-09 06:10:00,
2013-04-08 22:15:00,7.2,3.9,29.55,North,0,0.0,0.0,86,0.00,CLR,,0.00,WeatherDisplay:10.37,2013-04-09 06:15:00,
2013-04-08 22:25:00,7.2,3.1,29.54,North,0,0.0,0.0,83,0.00,CLR,,0.00,WeatherDisplay:10.37,2013-04-09 06:25:00,
2013-04-08 22:30:00,7.1,4.0,29.54,North,0,0.0,0.0,87,0.00,CLR,,0.00,WeatherDisplay:10.37,2013-04-09 06:30:00,
2013-04-08 22:40:00,7.0,3.2,29.53,North,0,0.0,0.0,84,0.00,CLR,,0.00,WeatherDisplay:10.37,2013-04-09 06:40:00,
2013-04-08 22:45:00,7.0,2.9,29.53,North,0,0.0,0.0,83,0.00,CLR,,0.00,WeatherDisplay:10.37,2013-04-09 06:45:00,
2013-04-08 22:50:00,7.0,3.2,29.53,North,0,0.0,0.0,84,0.00,CLR,,0.00,WeatherDisplay:10.37,2013-04-09 06:50:00,
2013-04-08 22:55:00,7.0,3.2,29.53,North,0,0.0,0.0,84,0.00,CLR,,0.00,WeatherDisplay:10.37,2013-04-09 06:55:00,
2013-04-08 23:00:00,7.0,3.2,29.52,North,0,0.0,0.0,84,0.00,CLR,,0.00,WeatherDisplay:10.37,2013-04-09 07:00:00,
2013-04-08 23:05:00,7.0,3.4,29.52,North,0,0.0,0.0,85,0.00,CLR,,0.00,WeatherDisplay:10.37,2013-04-09 07:05:00,
2013-04-08 23:15:00,6.9,3.1,29.52,North,0,0.0,0.0,84,0.00,CLR,,0.00,WeatherDisplay:10.37,2013-04-09 07:15:00,
2013-04-08 23:20:00,6.8,3.0,29.51,North,0,0.0,0.0,84,0.00,CLR,,0.00,WeatherDisplay:10.37,2013-04-09 07:20:00,
2013-04-08 23:30:00,6.7,4.2,29.51,North,0,0.0,0.0,89,0.00,CLR,,0.00,WeatherDisplay:10.37,2013-04-09 07:30:00,
2013-04-08 23:40:00,6.6,2.8,29.50,North,0,0.0,0.0,84,0.00,CLR,,0.00,WeatherDisplay:10.37,2013-04-09 07:40:00,
2013-04-08 23:50:00,6.6,2.8,29.50,North,0,0.0,0.0,84,0.00,CLR,,0.00,WeatherDisplay:10.37,2013-04-09 07:50:00,